TimeEDT,TemperatureF,Dew PointF,Humidity,Sea Level PressureIn,VisibilityMPH,Wind Direction,Wind SpeedMPH,Gust SpeedMPH,PrecipitationIn,Events,Conditions,WindDirDegrees,DateUTC
12:15 AM,41.0,28.4,61,29.80,10.0,SSW,5.8,-,N/A,,Scattered Clouds,200,2013-03-21 04:15:00
12:35 AM,41.0,26.6,57,29.78,10.0,South,4.6,-,N/A,,Clear,170,2013-03-21 04:35:00
12:55 AM,39.2,26.6,61,29.78,10.0,South,5.8,-,N/A,,Clear,190,2013-03-21 04:55:00
1:15 AM,39.2,26.6,61,29.78,10.0,SSW,6.9,-,N/A,,Clear,200,2013-03-21 05:15:00
1:35 AM,39.2,28.4,65,29.77,10.0,SSW,8.1,-,N/A,,Clear,200,2013-03-21 05:35:00
2:15 AM,39.2,26.6,61,29.76,10.0,South,10.4,-,N/A,,Clear,190,2013-03-21 06:15:00
2:35 AM,41.0,26.6,57,29.75,10.0,South,6.9,-,N/A,,Clear,190,2013-03-21 06:35:00
2:55 AM,37.4,26.6,65,29.75,10.0,NNW,5.8,-,N/A,,Clear,330,2013-03-21 06:55:00
3:15 AM,39.2,26.6,61,29.74,10.0,Calm,Calm,-,N/A,,Clear,0,2013-03-21 07:15:00
3:35 AM,35.6,26.6,70,29.74,10.0,Calm,Calm,-,N/A,,Clear,0,2013-03-21 07:35:00
3:55 AM,35.6,26.6,70,29.72,-9999.0,North,6.9,-,N/A,,Clear,360,2013-03-21 07:55:00
4:15 AM,35.6,23.0,60,29.73,10.0,NNE,15.0,18.4,N/A,,Clear,20,2013-03-21 08:15:00
4:35 AM,35.6,21.2,56,29.74,10.0,North,13.8,18.4,N/A,,Clear,10,2013-03-21 08:35:00
4:55 AM,35.6,21.2,56,29.75,10.0,North,11.5,-,N/A,,Clear,360,2013-03-21 08:55:00
5:15 AM,33.8,21.2,60,29.75,10.0,North,12.7,20.7,N/A,,Clear,360,2013-03-21 09:15:00
5:35 AM,33.8,21.2,60,29.75,10.0,North,12.7,21.9,N/A,,Clear,360,2013-03-21 09:35:00
5:55 AM,33.8,23.0,65,29.75,10.0,North,13.8,17.3,N/A,,Clear,360,2013-03-21 09:55:00
6:15 AM,33.8,23.0,65,29.76,10.0,North,11.5,16.1,N/A,,Clear,360,2013-03-21 10:15:00
6:35 AM,33.8,24.8,70,29.76,10.0,North,8.1,16.1,N/A,,Clear,350,2013-03-21 10:35:00
6:55 AM,33.8,24.8,70,29.77,10.0,North,9.2,-,N/A,,Scattered Clouds,360,2013-03-21 10:55:00
7:15 AM,33.8,24.8,70,29.77,10.0,North,11.5,-,N/A,,Overcast,350,2013-03-21 11:15:00
7:35 AM,33.8,24.8,70,29.77,10.0,North,10.4,18.4,N/A,,Overcast,350,2013-03-21 11:35:00
7:55 AM,33.8,24.8,70,29.76,10.0,North,11.5,16.1,N/A,,Overcast,350,2013-03-21 11:55:00
8:15 AM,33.8,24.8,70,29.76,10.0,North,10.4,19.6,N/A,,Overcast,360,2013-03-21 12:15:00
8:35 AM,33.8,23.0,65,29.75,10.0,North,12.7,18.4,N/A,,Overcast,350,2013-03-21 12:35:00
8:55 AM,33.8,24.8,70,29.76,10.0,North,10.4,19.6,N/A,,Overcast,360,2013-03-21 12:55:00
9:15 AM,33.8,24.8,70,29.76,10.0,North,12.7,17.3,N/A,,Overcast,350,2013-03-21 13:15:00
9:35 AM,33.8,24.8,70,29.76,10.0,North,11.5,-,N/A,,Overcast,360,2013-03-21 13:35:00
9:55 AM,33.8,24.8,70,29.76,10.0,North,12.7,-,N/A,,Overcast,360,2013-03-21 13:55:00
10:15 AM,35.6,24.8,65,29.76,10.0,North,10.4,-,N/A,,Overcast,350,2013-03-21 14:15:00
10:35 AM,33.8,24.8,70,29.75,7.0,North,10.4,16.1,N/A,,Overcast,360,2013-03-21 14:35:00
10:55 AM,33.8,26.6,75,29.75,2.5,North,8.1,17.3,N/A,,Overcast,350,2013-03-21 14:55:00
11:15 AM,33.8,26.6,75,29.75,1.2,North,10.4,19.6,N/A,,Overcast,350,2013-03-21 15:15:00
11:35 AM,32.0,26.6,80,29.75,2.0,North,8.1,-,N/A,,Overcast,350,2013-03-21 15:35:00
11:55 AM,32.0,26.6,80,29.74,2.0,North,8.1,-,N/A,,Overcast,350,2013-03-21 15:55:00
12:35 PM,30.2,24.8,80,29.75,1.2,North,10.4,-,N/A,,Overcast,10,2013-03-21 16:35:00
12:55 PM,30.2,24.8,80,29.74,3.0,NNW,9.2,-,N/A,,Overcast,340,2013-03-21 16:55:00
1:15 PM,30.2,26.6,86,29.74,-9999.0,NNW,9.2,-,N/A,,Overcast,340,2013-03-21 17:15:00
1:35 PM,30.2,26.6,86,29.73,1.2,NNW,10.4,16.1,N/A,,Overcast,340,2013-03-21 17:35:00
1:55 PM,32.0,28.4,87,29.73,1.2,North,8.1,-,N/A,,Overcast,350,2013-03-21 17:55:00
2:15 PM,32.0,26.6,80,29.72,4.0,NNW,10.4,17.3,0.01,,Mostly Cloudy,340,2013-03-21 18:15:00
2:35 PM,33.8,26.6,75,29.71,8.0,NNW,10.4,16.1,0.01,,Scattered Clouds,340,2013-03-21 18:35:00
2:55 PM,33.8,26.6,75,29.70,10.0,North,8.1,-,0.01,,Mostly Cloudy,360,2013-03-21 18:55:00
3:15 PM,33.8,26.6,75,29.70,-9999.0,NNW,6.9,-,N/A,,Mostly Cloudy,340,2013-03-21 19:15:00
3:35 PM,33.8,26.6,75,29.69,-9999.0,NNW,9.2,-,N/A,,Scattered Clouds,340,2013-03-21 19:35:00
3:55 PM,35.6,26.6,70,29.69,-9999.0,NNW,6.9,-,N/A,,Partly Cloudy,330,2013-03-21 19:55:00
4:15 PM,35.6,24.8,65,29.69,-9999.0,NNW,9.2,-,N/A,,Partly Cloudy,330,2013-03-21 20:15:00
4:35 PM,35.6,24.8,65,29.69,-9999.0,NNW,9.2,-,N/A,,Mostly Cloudy,340,2013-03-21 20:35:00
4:55 PM,35.6,23.0,60,29.70,-9999.0,North,4.6,-,N/A,,Scattered Clouds,350,2013-03-21 20:55:00
5:15 PM,37.4,19.4,48,29.70,-9999.0,WNW,11.5,19.6,N/A,,Partly Cloudy,290,2013-03-21 21:15:00
5:35 PM,37.4,17.6,45,29.70,10.0,NW,12.7,18.4,N/A,,Clear,310,2013-03-21 21:35:00
5:55 PM,37.4,17.6,45,29.71,10.0,WNW,10.4,18.4,N/A,,Clear,300,2013-03-21 21:55:00
6:15 PM,35.6,15.8,44,29.72,10.0,WNW,9.2,17.3,N/A,,Partly Cloudy,300,2013-03-21 22:15:00
6:35 PM,35.6,15.8,44,29.73,10.0,WNW,15.0,19.6,N/A,,Mostly Cloudy,290,2013-03-21 22:35:00
6:55 PM,35.6,15.8,44,29.74,10.0,NW,12.7,24.2,N/A,,Mostly Cloudy,310,2013-03-21 22:55:00
7:15 PM,35.6,15.8,44,29.75,10.0,WNW,10.4,19.6,N/A,,Scattered Clouds,290,2013-03-21 23:15:00
7:35 PM,35.6,15.8,44,29.76,10.0,WNW,11.5,17.3,N/A,,Mostly Cloudy,290,2013-03-21 23:35:00
7:55 PM,35.6,14.0,41,29.76,10.0,WNW,15.0,24.2,N/A,,Overcast,290,2013-03-21 23:55:00
8:15 PM,35.6,14.0,41,29.77,10.0,WNW,12.7,18.4,N/A,,Mostly Cloudy,300,2013-03-22 00:15:00
8:35 PM,33.8,12.2,41,29.78,10.0,WNW,16.1,21.9,0.01,,Mostly Cloudy,290,2013-03-22 00:35:00
8:55 PM,33.8,12.2,41,29.79,10.0,WNW,10.4,21.9,0.01,,Partly Cloudy,290,2013-03-22 00:55:00
9:15 PM,33.8,12.2,41,29.79,10.0,NW,10.4,20.7,N/A,,Mostly Cloudy,320,2013-03-22 01:15:00
9:35 PM,33.8,12.2,41,29.80,10.0,NW,13.8,24.2,N/A,,Overcast,320,2013-03-22 01:35:00
9:55 PM,33.8,12.2,41,29.80,10.0,NW,11.5,20.7,N/A,,Overcast,320,2013-03-22 01:55:00
10:15 PM,32.0,12.2,44,29.81,10.0,WNW,13.8,20.7,N/A,,Mostly Cloudy,300,2013-03-22 02:15:00
10:35 PM,32.0,10.4,41,29.81,10.0,WNW,15.0,26.5,N/A,,Partly Cloudy,290,2013-03-22 02:35:00
10:55 PM,32.0,10.4,41,29.82,10.0,WNW,15.0,26.5,N/A,,Clear,300,2013-03-22 02:55:00
11:15 PM,32.0,8.6,38,29.83,10.0,WNW,12.7,24.2,N/A,,Clear,290,2013-03-22 03:15:00
11:35 PM,30.2,10.4,44,29.83,10.0,WNW,15.0,21.9,N/A,,Clear,300,2013-03-22 03:35:00
11:55 PM,30.2,10.4,44,29.83,10.0,NW,12.7,25.3,N/A,,Clear,310,2013-03-22 03:55:00